カタログに戻る

STARLINK-11139

運用中通信VLEO
NORAD 60402·PAYLOAD·🇺🇸 United States

打ち上げ Aug 10, 2024 から Cape Canaveral Space Force Station

Loading…

次のパス (今後24時間)

TLE

最新Source: CelesTrak SupGP

元期: Sep 15, 2026, 03:21 UTC

1 60402C 24141E   26258.14006944 -.00067591  00000+0 -55639-3 0  2583
2 60402  53.1573 232.0178 0001182  84.5054 240.5933 15.69759684    16

AllMySatでSTARLINK-11139をリアルタイム追跡

Download on the App Store